• In India
  • List of Countries
  • For 7 days
  • Water Temperature
  • Satellite Maps
  • Weather Map
  • Weather Widgets
  • user-avatar
    Login

    Hourly Weather Porichchya

    Today, 16 August, Thursday

    Time Temperature Precipitation Wind Pressure Humidity
    00:00 +28°C° 0 mm 2 mps 756 mmHg 33%
    01:00 +28°C° 0 mm 2 mps 756 mmHg 33%
    02:00 +28°C° 0 mm 2 mps 756 mmHg 34%
    03:00 +27°C° 0 mm 2 mps 756 mmHg 34%
    04:00 +27°C° 0 mm 2 mps 756 mmHg 34%
    05:00 +27°C° 0 mm 2 mps 756 mmHg 34%
    06:00 +28°C° 0 mm 2 mps 756 mmHg 34%
    07:00 +28°C° 0 mm 3 mps 756 mmHg 35%
    08:00 +29°C° 0 mm 3 mps 756 mmHg 36%
    09:00 +30°C° 0 mm 3 mps 756 mmHg 34%
    10:00 +33°C° 0 mm 3 mps 756 mmHg 33%
    11:00 +34°C° 0 mm 3 mps 756 mmHg 31%
    12:00 +35°C° 0 mm 3 mps 756 mmHg 29%
    13:00 +36°C° 0 mm 4 mps 756 mmHg 27%
    14:00 +37°C° 0 mm 4 mps 755 mmHg 26%
    15:00 +36°C° 0 mm 4 mps 755 mmHg 27%
    16:00 +35°C° 0 mm 4 mps 755 mmHg 28%
    17:00 +35°C° 0 mm 5 mps 755 mmHg 29%
    18:00 +34°C° 0 mm 5 mps 755 mmHg 33%
    19:00 +32°C° 0 mm 5 mps 755 mmHg 37%
    20:00 +30°C° 0 mm 5 mps 755 mmHg 41%
    21:00 +29°C° 0 mm 5 mps 755 mmHg 41%
    22:00 +29°C° 0 mm 4 mps 756 mmHg 41%
    23:00 +28°C° 0 mm 4 mps 756 mmHg 41%

    Tomorrow, 17 August, Friday

    Time Temperature Precipitation Wind Pressure Humidity
    00:00 +28°C° 0 mm 4 mps 756 mmHg 43%
    01:00 +27°C° 0 mm 4 mps 756 mmHg 44%
    02:00 +27°C° 0 mm 4 mps 756 mmHg 46%
    03:00 +26°C° 0 mm 4 mps 756 mmHg 47%
    04:00 +26°C° 0 mm 3 mps 756 mmHg 49%
    05:00 +26°C° 0 mm 3 mps 756 mmHg 51%
    06:00 +26°C° 0 mm 4 mps 756 mmHg 50%
    07:00 +27°C° 0 mm 4 mps 756 mmHg 49%
    08:00 +27°C° 0 mm 4 mps 756 mmHg 47%
    09:00 +29°C° 0 mm 4 mps 756 mmHg 43%
    10:00 +30°C° 0 mm 4 mps 756 mmHg 39%
    11:00 +33°C° 0 mm 3 mps 756 mmHg 35%
    12:00 +34°C° 0 mm 3 mps 756 mmHg 32%
    13:00 +35°C° 0 mm 3 mps 756 mmHg 30%
    14:00 +35°C° 0 mm 3 mps 755 mmHg 27%
    15:00 +35°C° 0 mm 3 mps 755 mmHg 27%
    16:00 +35°C° 0 mm 4 mps 755 mmHg 27%
    17:00 +35°C° 0 mm 4 mps 755 mmHg 28%
    18:00 +33°C° 0 mm 4 mps 755 mmHg 30%
    19:00 +32°C° 0 mm 4 mps 755 mmHg 33%
    20:00 +30°C° 0 mm 4 mps 755 mmHg 36%
    21:00 +29°C° 0 mm 4 mps 756 mmHg 37%
    22:00 +29°C° 0 mm 4 mps 756 mmHg 39%
    23:00 +28°C° 0 mm 4 mps 756 mmHg 40%

    Day after tomorrow, 18 August, Saturday

    Time Temperature Precipitation Wind Pressure Humidity
    00:00 +27°C° 0 mm 3 mps 756 mmHg 42%
    01:00 +27°C° 0 mm 3 mps 756 mmHg 43%
    02:00 +26°C° 0 mm 3 mps 756 mmHg 44%
    03:00 +25°C° 0 mm 3 mps 756 mmHg 47%
    04:00 +25°C° 0 mm 3 mps 756 mmHg 49%
    05:00 +24°C° 0 mm 3 mps 756 mmHg 52%
    06:00 +26°C° 0 mm 3 mps 756 mmHg 49%
    07:00 +27°C° 0 mm 4 mps 756 mmHg 46%
    08:00 +29°C° 0 mm 4 mps 756 mmHg 43%
    09:00 +32°C° 0 mm 4 mps 756 mmHg 37%
    10:00 +34°C° 0 mm 4 mps 756 mmHg 31%
    11:00 +36°C° 0 mm 3 mps 756 mmHg 25%
    12:00 +36°C° 0 mm 3 mps 756 mmHg 24%
    13:00 +37°C° 0 mm 3 mps 756 mmHg 23%
    14:00 +37°C° 0 mm 3 mps 756 mmHg 22%
    15:00 +36°C° 0 mm 3 mps 756 mmHg 24%
    16:00 +35°C° 0 mm 3 mps 756 mmHg 26%
    17:00 +34°C° 0 mm 3 mps 756 mmHg 29%
    18:00 +33°C° 0 mm 3 mps 756 mmHg 31%
    19:00 +31°C° 0 mm 3 mps 756 mmHg 34%
    20:00 +30°C° 0 mm 3 mps 756 mmHg 36%
    21:00 +29°C° 0 mm 3 mps 757 mmHg 38%
    22:00 +28°C° 0 mm 3 mps 757 mmHg 40%
    23:00 +27°C° 0 mm 3 mps 757 mmHg 43%

    19 August, Sunday

    Time Temperature Precipitation Wind Pressure Humidity
    00:00 +27°C° 0 mm 3 mps 757 mmHg 44%
    01:00 +26°C° 0 mm 3 mps 757 mmHg 46%
    02:00 +25°C° 0 mm 2 mps 757 mmHg 47%
    03:00 +25°C° 0 mm 2 mps 757 mmHg 49%
    04:00 +25°C° 0 mm 2 mps 757 mmHg 50%
    05:00 +24°C° 0 mm 2 mps 757 mmHg 52%
    06:00 +26°C° 0 mm 2 mps 757 mmHg 49%
    07:00 +28°C° 0 mm 3 mps 757 mmHg 46%
    08:00 +29°C° 0 mm 3 mps 757 mmHg 43%
    09:00 +31°C° 0 mm 3 mps 757 mmHg 39%
    10:00 +33°C° 0 mm 3 mps 757 mmHg 35%
    11:00 +35°C° 0 mm 3 mps 757 mmHg 31%
    12:00 +35°C° 0 mm 2 mps 757 mmHg 30%
    13:00 +35°C° 0 mm 2 mps 757 mmHg 28%
    14:00 +36°C° 0 mm 2 mps 756 mmHg 27%
    15:00 +35°C° 0 mm 2 mps 756 mmHg 29%
    16:00 +35°C° 0 mm 2 mps 756 mmHg 30%
    17:00 +34°C° 0 mm 2 mps 756 mmHg 32%
    18:00 +32°C° 0.1 mm 2 mps 756 mmHg 34%
    19:00 +31°C° 0.1 mm 2 mps 756 mmHg 37%
    20:00 +29°C° 0.1 mm 2 mps 756 mmHg 40%
    21:00 +28°C° 0.2 mm 2 mps 757 mmHg 43%
    22:00 +27°C° 0.2 mm 2 mps 757 mmHg 47%
    23:00 +26°C° 0.2 mm 2 mps 757 mmHg 50%

    20 August, Monday

    Time Temperature Precipitation Wind Pressure Humidity
    00:00 +25°C° 0.4 mm 2 mps 757 mmHg 52%
    01:00 +25°C° 0.4 mm 2 mps 757 mmHg 53%
    02:00 +24°C° 0.4 mm 1 mps 757 mmHg 54%
    03:00 +24°C° 0 mm 1 mps 757 mmHg 53%
    04:00 +23°C° 0 mm 1 mps 757 mmHg 53%
    05:00 +23°C° 0 mm 1 mps 757 mmHg 52%
    06:00 +25°C° 0 mm 2 mps 757 mmHg 47%
    07:00 +26°C° 0 mm 2 mps 757 mmHg 43%
    08:00 +27°C° 0 mm 2 mps 757 mmHg 38%
    09:00 +29°C° 0 mm 2 mps 757 mmHg 34%
    10:00 +30°C° 0 mm 2 mps 757 mmHg 31%
    11:00 +32°C° 0 mm 2 mps 758 mmHg 27%
    12:00 +34°C° 0 mm 2 mps 757 mmHg 27%
    13:00 +34°C° 0 mm 2 mps 757 mmHg 26%
    14:00 +34°C° 0 mm 1 mps 757 mmHg 25%
    15:00 +35°C° 0 mm 2 mps 757 mmHg 26%
    16:00 +34°C° 0 mm 2 mps 757 mmHg 26%
    17:00 +34°C° 0 mm 2 mps 757 mmHg 26%
    18:00 +32°C° 0 mm 2 mps 757 mmHg 29%
    19:00 +30°C° 0 mm 2 mps 757 mmHg 32%
    20:00 +28°C° 0 mm 2 mps 757 mmHg 35%
    21:00 +27°C° 0 mm 2 mps 757 mmHg 37%
    22:00 +26°C° 0 mm 2 mps 758 mmHg 38%
    23:00 +25°C° 0 mm 2 mps 758 mmHg 40%

    21 August, Tuesday

    Time Temperature Precipitation Wind Pressure Humidity
    00:00 +25°C° 0 mm 2 mps 758 mmHg 42%
    01:00 +24°C° 0 mm 1 mps 758 mmHg 43%
    02:00 +24°C° 0 mm 1 mps 758 mmHg 45%
    03:00 +23°C° 0 mm 1 mps 758 mmHg 46%
    04:00 +23°C° 0 mm 1 mps 758 mmHg 48%
    05:00 +23°C° 0 mm 1 mps 758 mmHg 49%
    06:00 +24°C° 0 mm 1 mps 758 mmHg 46%
    07:00 +26°C° 0 mm 1 mps 758 mmHg 43%
    08:00 +28°C° 0 mm 2 mps 759 mmHg 40%
    09:00 +29°C° 0 mm 2 mps 759 mmHg 36%
    10:00 +31°C° 0 mm 2 mps 759 mmHg 32%
    11:00 +32°C° 0 mm 2 mps 758 mmHg 28%
    12:00 +34°C° 0 mm 2 mps 758 mmHg 27%
    13:00 +34°C° 0 mm 2 mps 758 mmHg 26%
    14:00 +35°C° 0 mm 2 mps 758 mmHg 25%
    15:00 +35°C° 0 mm 2 mps 758 mmHg 25%
    16:00 +34°C° 0 mm 1 mps 758 mmHg 26%
    17:00 +34°C° 0 mm 1 mps 757 mmHg 26%
    18:00 +32°C° 0 mm 2 mps 758 mmHg 28%
    19:00 +30°C° 0 mm 2 mps 758 mmHg 31%
    20:00 +29°C° 0 mm 2 mps 758 mmHg 33%
    21:00 +28°C° 0 mm 2 mps 758 mmHg 35%
    22:00 +27°C° 0 mm 2 mps 758 mmHg 37%
    23:00 +26°C° 0 mm 2 mps 758 mmHg 39%
    Show more